This is the latest recevied weather packets stored in our database for station/object WA7ABU-29. If no packets are shown the sender has not sent any weather packets the latest 10 day(s).
| Time | Temp. | Humidity | Pressure | Rain* | Wind** | Luminosity | Snow |
|---|---|---|---|---|---|---|---|
| 1777176798 | 13.89° C | 33% | 989.2 hPa | 0 mm | - | - | - |
| 1777175216 | 13.89° C | 32% | 989.2 hPa | 0 mm | - | - | - |
| 1777175093 | 13.89° C | 33% | 989.2 hPa | 0 mm | - | - | - |
| 1777174419 | 14.44° C | 32% | 988.8 hPa | 0 mm | - | - | - |
| 1777174038 | 14.44° C | 31% | 989.2 hPa | 0 mm | - | - | - |
| 1777172181 | 15.56° C | 30% | 989.2 hPa | 0 mm | - | - | - |
| 1777171437 | 15.56° C | 30% | 988.8 hPa | 0 mm | - | - | - |
| 1777170323 | 16.11° C | 30% | 988.8 hPa | 0 mm | - | - | - |
| 1777170199 | 16.11° C | 29% | 989.2 hPa | 0 mm | - | - | - |
| 1777170177 | 16.11° C | 31% | 988.8 hPa | 0 mm | - | - | - |
| 1777169175 | 16.11° C | 32% | 989.2 hPa | 0 mm | - | - | - |
| 1777168803 | 16.67° C | 31% | 989.2 hPa | 0 mm | - | - | - |
| 1777168276 | 16.67° C | 28% | 989.2 hPa | 0 mm | - | - | - |
| 1777167065 | 17.22° C | 29% | 989.2 hPa | 0 mm | - | - | - |
| 1777166941 | 17.22° C | 29% | 988.8 hPa | 0 mm | - | - | - |
| 1777166176 | 17.22° C | 28% | 989.2 hPa | 0 mm | - | - | - |
| 1777164053 | 17.78° C | 33% | 989.2 hPa | 0 mm | - | - | - |
| 1777161229 | 18.33° C | 32% | 989.2 hPa | 0 mm | - | - | - |
| 1777161105 | 17.78° C | 30% | 989.2 hPa | 0 mm | - | - | - |
| 1777160485 | 17.78° C | 35% | 989.5 hPa | 0 mm | - | - | - |
| 1777160238 | 17.78° C | 33% | 989.5 hPa | 0 mm | - | - | - |
| 1777159990 | 17.22° C | 28% | 989.5 hPa | 0 mm | - | - | - |
| 1777159473 | 17.78° C | 36% | 989.5 hPa | 0 mm | - | - | - |
| 1777158967 | 17.78° C | 35% | 989.5 hPa | 0 mm | - | - | - |
| 1777158471 | 18.33° C | 32% | 989.5 hPa | 0 mm | - | - | - |
* Rain latest hour (hover to see other rain measurements)
** Current wind speed in m/s (hover to see current wind gust speed)